Location: Unspecified
(48.2082°N, 0.0000°E)
Time: 14:05:38
(UTC+00:00)

A-11 Canister half - Pass Details

Date: 25 June 2019
Orbit: 1514 x 1685 km, 47.2° (Epoch: 22 July)

Event Time Altitude Azimuth Distance (km) Brightness Sun altitude
Rises 08:15:27 0° 198° (SSW) 4,919 11.6 39.1°
Reaches altitude 10° 08:19:13 10° 187° (S) 3,923 11.3 39.7°
Maximum altitude 08:27:13 28° 134° (SE) 2,731 11.6 41.1°
Drops below altitude 10° 08:35:02 10° 80° (E) 3,845 12.1 42.3°
Sets 08:38:40 0° 70° (ENE) 4,807 12.2 42.9°
